Miscellaneous Local Product
Issued by NWS Hastings, NE

Home | Current Version | Previous Version | Graphics & Text | Print | Product List | Glossary On
Versions: 1 2 3 4 5 6 7 8 9 10 11 12 13 14 15 16 17 18 19 20 21 22 23 24 25 26 27 28 29 30 31 32 33 34 35 36 37 38 39 40 41 42 43 44 45 46 47 48 49 50
000
AXUS43 KGID 250102
MISGRI

GID CWA HOURLY WEATHER ROUNDUP
NATIONAL WEATHER SERVICE HASTINGS NE
800 PM CDT TUE MAY 24 2016

NOTE: "FAIR" INDICATES FEW OR NO CLOUDS BELOW 12,000 FEET WITH NO
SIGNIFICANT WEATHER AND/OR OBSTRUCTIONS TO VISIBILITY.

...SOUTH CENTRAL NEBRASKA...

CITY           SKY/WX    TMP DP  RH WIND       PRES   REMARKS
GRAND ISLAND   CLOUDY    76  62  62 S7        29.84S
HASTINGS       CLOUDY    77  59  53 S10       29.84R
KEARNEY        CLOUDY    75  57  53 SE13G20   29.83F
ORD            CLEAR     75  58  55 SE7       29.80F
YORK           MOCLDY    77  61  57 SE7       29.83F
AURORA         CLOUDY    77  62  59 SE7       29.83S
LEXINGTON      PTCLDY    74  58  57 SE9       29.80F
HOLDREGE       CLOUDY    75  59  56 SE14      29.81F
HEBRON         CLEAR     77  60  55 SE9       29.82S

...NEBRASKA PANHANDLE...

CITY           SKY/WX    TMP DP  RH WIND       PRES   REMARKS
CHADRON        CLOUDY    56  48  74 N20G25    29.85R
ALLIANCE       CLOUDY    60  43  53 W38G54    29.84R SQUALL  THUNDER
SCOTTSBLUFF    LGT RAIN  60  48  64 SE25G46   29.78F
SIDNEY         TSTM      55  50  83 E13       29.82F

...WESTERN AND NORTH CENTRAL NEBRASKA...

CITY           SKY/WX    TMP DP  RH WIND       PRES   REMARKS
VALENTINE      PTSUNNY   76  50  40 SE15      29.78F
AINSWORTH      CLOUDY    74  52  44 SE13      29.81S
ONEILL         PTCLDY    80  52  38 SE6       29.82F
BROKEN BOW     CLEAR     74  58  57 SE12      29.82F
IMPERIAL       CLOUDY    71  59  65 E14       29.77F
NORTH PLATTE   CLOUDY    72  59  63 SE8       29.80F
MCCOOK         PTCLDY    74  60  61 SE14      29.79S

...EASTERN NEBRASKA...

CITY           SKY/WX    TMP DP  RH WIND       PRES   REMARKS
NORFOLK        CLEAR     77  56  48 SE16      29.83S
SO SIOUX CITY  CLEAR     78  63  59 SE9       29.84S
TEKAMAH        CLEAR     79  59  50 S10       29.84F
COLUMBUS       CLEAR     79  57  47 SE10      29.84F
ALBION         CLEAR     76  56  48 SE10      29.82F
OMAHA EPPLEY   PTCLDY    79  60  52 S10       29.85F
MILLARD        CLEAR     79  61  52 SE7       29.86S
LINCOLN        PTCLDY    79  61  53 E13       29.84F
NEBRASKA CITY  CLEAR     77  61  57 E6        29.86F
BEATRICE       CLEAR     79  61  54 SE9       29.83F
FALLS CITY     CLEAR     79  62  56 SE9       29.85S

...NORTHERN KANSAS...

CITY           SKY/WX    TMP DP  RH WIND       PRES   REMARKS
GOODLAND       SUNNY     73  62  68 E16       29.76F
HILL CITY      CLOUDY    72  64  76 E16G24    29.75R
NORTON         CLEAR     73  59  60 E12G22    29.76F
PHILLIPSBURG   CLEAR     73  63  68 E15       29.75F THUNDER
SMITH CENTER   PTCLDY    70  64  83 SE22      29.78F
BELOIT         CLEAR     73  66  78 CALM      29.82R
HAYS           CLOUDY    73  63  68 NE12      29.83R THUNDER
RUSSELL        CLOUDY    73  68  84 NE9       29.80S
CONCORDIA      CLOUDY    74  66  76 S5        29.83R
SALINA         CLOUDY    80  70  71 SE12      29.81R
TOPEKA         MOCLDY    79  69  71 E7        29.85F



USA.gov is the U.S. government's official web portal to all federal, state and local government web resources and services.